Preview of NWS' New Version of Forecast
This preview is not operational and should not be used for support decisions.

Regional Weather Roundup (RWR)

Issued by National Weather Service (NWS)

                            
000
ASUS44 KMEG 212300
RWRTN 
TENNESSEE HOURLY STATE WEATHER ROUNDUP
NATIONAL WEATHER SERVICE MEMPHIS TN
600 PM CDT SAT SEP 21 2019

TNZ002-004-019-021-049-052-054-088>092-220000-
WEST TENNESSEE
  
CITY           SKY/WX    TMP DP  RH WIND       PRES   REMARKS
MEMPHIS INTL   FAIR      87  58  37 S12       30.11F                  
NWS MEMPHIS      N/A     89 N/A N/A MISG        N/A                   
JACKSON        FAIR      86  59  39 S6        30.13F                  
DYERSBURG      FAIR      87  60  40 CALM      30.12F                  
$$

TNZ008-025-027-028-033-062-065-066-220000-
NORTH MIDDLE TENNESSEE
  
CITY           SKY/WX    TMP DP  RH WIND       PRES   REMARKS
NASHVILLE      FAIR      87  51  28 S9        30.16S                  
CLARKSVILLE    FAIR      88  55  32 SW3       30.13F                  
SMYRNA         FAIR      87  56  34 S5        30.17R                  
CROSSVILLE     FAIR      79  55  43 VRB3      30.25R                  
$$

TNZ061-075-076-078-094-096-097-220000-
SOUTH MIDDLE TENNESSEE
  
CITY           SKY/WX    TMP DP  RH WIND       PRES   REMARKS
$$

TNZ017-018-042-046-047-220000-
NORTHEAST TENNESSEE
  
CITY           SKY/WX    TMP DP  RH WIND       PRES   REMARKS
TRI CITIES     FAIR      84  57  39 CALM      30.22S                  
$$

TNZ012-013-036-069-073-074-220000-
CENTRAL EAST TENNESSEE
  
CITY           SKY/WX    TMP DP  RH WIND       PRES   REMARKS
KNOXVILLE      FAIR      85  56  37 NW5       30.18S                  
OAK RIDGE      FAIR      86  56  35 S3        30.20S                  
$$

TNZ083-085-099-220000-
SOUTHEAST TENNESSEE
  
CITY           SKY/WX    TMP DP  RH WIND       PRES   REMARKS
CHATTANOOGA    FAIR      86  55  34 E5        30.18S                  
$$

SKY/WX REPORTED AS FAIR MEANS FEW OR NO CLOUDS BELOW
12 THOUSAND FEET.